Portada
METAR-TAF:

METAR-TAF

Aeroports :

West Bend Municipal Airport

West Bend, Wisconsin, Estats Units d'Amèrica

latitud: 43-25-20N, longitud: 088-07-41W, altitud: 270 m

Observació

L'informe es va fer fa 22 minuts, a les 00:15 UTC
Vent 7 kt del Nord
Temperatura -12°C
Humitat 72%
Pressió 1021 hPa
Visibilitat: 16.1 km
Cel clar

METAR: KETB 200015Z AUTO 01007KT 10SM CLR M12/M16 A3015 RMK AO2

Hora: 18:37 (00:37 UTC)


TAF: manca

Observacions i pronòstics meteorològics de més de 4000 aeroports (METAR i TAF).

Les estacions disponibles són els punts grocs i vermells al mapa.

Posi el ratolí al punt desitjat per veure el nom de l'estació.

Feu clic per veure les observacions i els pronòstics meteorològics.

Per canviar el mapa: feu clic els botons verds amb una creu de color negre per apropar; al botó verd amb un guió per allunyar la imatge; o en les fletxes verdes per a mapes adjacents.


METAR-TAF: